Year,Month,Day,Hour,Minute,Value (Times are PST for temperature in C)
2017,07,31,00,00,16.60
2017,07,31,00,01,16.60
2017,07,31,00,02,16.60
2017,07,31,00,03,16.60
2017,07,31,00,04,16.50
2017,07,31,00,05,16.50
2017,07,31,00,06,16.50
2017,07,31,00,07,16.40
2017,07,31,00,08,16.40
2017,07,31,00,09,16.40
2017,07,31,00,10,16.40
2017,07,31,00,11,16.30
2017,07,31,00,12,16.30
2017,07,31,00,13,16.30
2017,07,31,00,14,16.30
2017,07,31,00,15,16.30
2017,07,31,00,16,16.30
2017,07,31,00,17,16.40
2017,07,31,00,18,16.40
2017,07,31,00,19,16.50
2017,07,31,00,20,16.50
2017,07,31,00,21,16.60
2017,07,31,00,22,16.70
2017,07,31,00,23,16.70
2017,07,31,00,24,16.80
2017,07,31,00,25,16.90
2017,07,31,00,26,17.10
2017,07,31,00,27,17.20
2017,07,31,00,28,17.30
2017,07,31,00,29,17.30
2017,07,31,00,30,17.40
2017,07,31,00,31,17.50
2017,07,31,00,32,17.50
2017,07,31,00,33,17.60
2017,07,31,00,34,17.60
2017,07,31,00,35,17.70
2017,07,31,00,36,17.70
2017,07,31,00,37,17.70
2017,07,31,00,38,17.70
2017,07,31,00,39,17.60
2017,07,31,00,40,17.60
2017,07,31,00,41,17.50
2017,07,31,00,42,17.50
2017,07,31,00,43,17.50
2017,07,31,00,44,17.40
2017,07,31,00,45,17.40
2017,07,31,00,46,17.40
2017,07,31,00,47,17.50
2017,07,31,00,48,17.50
2017,07,31,00,49,17.50
2017,07,31,00,50,17.50
2017,07,31,00,51,17.60
2017,07,31,00,52,17.60
2017,07,31,00,53,17.60
2017,07,31,00,54,17.60
2017,07,31,00,55,17.70
2017,07,31,00,56,17.70
2017,07,31,00,57,17.70
2017,07,31,00,58,17.70
2017,07,31,00,59,17.70
2017,07,31,01,00,17.60
2017,07,31,01,01,17.60
2017,07,31,01,02,17.60
2017,07,31,01,03,17.60
2017,07,31,01,04,17.50
2017,07,31,01,05,17.50
2017,07,31,01,06,17.40
2017,07,31,01,07,17.40
2017,07,31,01,08,17.30
2017,07,31,01,09,17.30
2017,07,31,01,10,17.20
2017,07,31,01,11,17.20
2017,07,31,01,12,17.10
2017,07,31,01,13,17.10
2017,07,31,01,14,17.10
2017,07,31,01,15,17.10
2017,07,31,01,16,17.00
2017,07,31,01,17,16.90
2017,07,31,01,18,16.90
2017,07,31,01,19,16.90
2017,07,31,01,20,16.80
2017,07,31,01,21,16.80
2017,07,31,01,22,16.80
2017,07,31,01,23,16.70
2017,07,31,01,24,16.60
2017,07,31,01,25,16.50
2017,07,31,01,26,16.50
2017,07,31,01,27,16.50
2017,07,31,01,28,16.50
2017,07,31,01,29,16.50
2017,07,31,01,30,16.50
2017,07,31,01,31,16.50
2017,07,31,01,32,16.50
2017,07,31,01,33,16.40
2017,07,31,01,34,16.40
2017,07,31,01,35,16.40
2017,07,31,01,36,16.50
2017,07,31,01,37,16.50
2017,07,31,01,38,16.50
2017,07,31,01,39,16.60
2017,07,31,01,40,16.60
2017,07,31,01,41,16.60
2017,07,31,01,42,16.70
2017,07,31,01,43,16.70
2017,07,31,01,44,16.80
2017,07,31,01,45,16.80
2017,07,31,01,46,16.80
2017,07,31,01,47,16.80
2017,07,31,01,48,16.90
2017,07,31,01,49,17.00
2017,07,31,01,50,17.00
2017,07,31,01,51,17.10
2017,07,31,01,52,17.10
2017,07,31,01,53,17.20
2017,07,31,01,54,17.20
2017,07,31,01,55,17.30
2017,07,31,01,56,17.30
2017,07,31,01,57,17.30
2017,07,31,01,58,17.30
2017,07,31,01,59,17.30
2017,07,31,02,00,17.30
2017,07,31,02,01,17.30
2017,07,31,02,02,17.30
2017,07,31,02,03,17.30
2017,07,31,02,04,17.30
2017,07,31,02,05,17.30
2017,07,31,02,06,17.30
2017,07,31,02,07,17.20
2017,07,31,02,08,17.20
2017,07,31,02,09,17.20
2017,07,31,02,10,17.10
2017,07,31,02,11,17.10
2017,07,31,02,12,17.10
2017,07,31,02,13,17.00
2017,07,31,02,14,17.00
2017,07,31,02,15,17.00
2017,07,31,02,16,17.00
2017,07,31,02,17,17.00
2017,07,31,02,18,17.00
2017,07,31,02,19,17.00
2017,07,31,02,20,17.00
2017,07,31,02,21,17.00
2017,07,31,02,22,17.00
2017,07,31,02,23,17.00
2017,07,31,02,24,17.00
2017,07,31,02,25,17.00
2017,07,31,02,26,17.00
2017,07,31,02,27,17.00
2017,07,31,02,28,17.00
2017,07,31,02,29,17.00
2017,07,31,02,30,17.00
2017,07,31,02,31,17.00
2017,07,31,02,32,17.00
2017,07,31,02,33,17.00
2017,07,31,02,34,17.00
2017,07,31,02,35,17.10
2017,07,31,02,36,17.10
2017,07,31,02,37,17.10
2017,07,31,02,38,17.10
2017,07,31,02,39,17.10
2017,07,31,02,40,17.10
2017,07,31,02,41,17.10
2017,07,31,02,42,17.10
2017,07,31,02,43,17.10
2017,07,31,02,44,17.10
2017,07,31,02,45,17.10
2017,07,31,02,46,17.10
2017,07,31,02,47,17.10
2017,07,31,02,48,17.10
2017,07,31,02,49,17.10
2017,07,31,02,50,17.00
2017,07,31,02,51,17.00
2017,07,31,02,52,16.90
2017,07,31,02,53,16.90
2017,07,31,02,54,16.90
2017,07,31,02,55,16.80
2017,07,31,02,56,16.90
2017,07,31,02,57,16.90
2017,07,31,02,58,16.90
2017,07,31,02,59,17.00
2017,07,31,03,00,17.00
2017,07,31,03,01,17.00
2017,07,31,03,02,17.00
2017,07,31,03,03,17.00
2017,07,31,03,04,17.10
2017,07,31,03,05,17.10
2017,07,31,03,06,17.10
2017,07,31,03,07,17.10
2017,07,31,03,08,17.10
2017,07,31,03,09,17.20
2017,07,31,03,10,17.20
2017,07,31,03,11,17.20
2017,07,31,03,12,17.30
2017,07,31,03,13,17.30
2017,07,31,03,14,17.30
2017,07,31,03,15,17.30
2017,07,31,03,16,17.30
2017,07,31,03,17,17.30
2017,07,31,03,18,17.30
2017,07,31,03,19,17.30
2017,07,31,03,20,17.30
2017,07,31,03,21,17.30
2017,07,31,03,22,17.30
2017,07,31,03,23,17.30
2017,07,31,03,24,17.30
2017,07,31,03,25,17.30
2017,07,31,03,26,17.30
2017,07,31,03,27,17.20
2017,07,31,03,28,17.20
2017,07,31,03,29,17.20
2017,07,31,03,30,17.20
2017,07,31,03,31,17.20
2017,07,31,03,32,17.20
2017,07,31,03,33,17.20
2017,07,31,03,34,17.20
2017,07,31,03,35,17.10
2017,07,31,03,36,17.10
2017,07,31,03,37,17.10
2017,07,31,03,38,17.10
2017,07,31,03,39,17.10
2017,07,31,03,40,17.10
2017,07,31,03,41,17.00
2017,07,31,03,42,17.00
2017,07,31,03,43,17.00
2017,07,31,03,44,17.00
2017,07,31,03,45,16.90
2017,07,31,03,46,16.90
2017,07,31,03,47,16.90
2017,07,31,03,48,16.90
2017,07,31,03,49,16.90
2017,07,31,03,50,16.90
2017,07,31,03,51,16.90
2017,07,31,03,52,16.90
2017,07,31,03,53,16.90
2017,07,31,03,54,16.90
2017,07,31,03,55,16.90
2017,07,31,03,56,16.90
2017,07,31,03,57,16.80
2017,07,31,03,58,16.80
2017,07,31,03,59,16.80
2017,07,31,04,00,16.80
2017,07,31,04,01,16.80
2017,07,31,04,02,16.90
2017,07,31,04,03,16.90
2017,07,31,04,04,16.90
2017,07,31,04,05,16.90
2017,07,31,04,06,16.90
2017,07,31,04,07,16.90
2017,07,31,04,08,16.90
2017,07,31,04,09,16.90
2017,07,31,04,10,16.90
2017,07,31,04,11,16.90
2017,07,31,04,12,16.90
2017,07,31,04,13,16.90
2017,07,31,04,14,16.90
2017,07,31,04,15,16.90
2017,07,31,04,16,16.90
2017,07,31,04,17,16.90
2017,07,31,04,18,16.80
2017,07,31,04,19,16.80
2017,07,31,04,20,16.80
2017,07,31,04,21,16.80
2017,07,31,04,22,16.80
2017,07,31,04,23,16.80
2017,07,31,04,24,16.80
2017,07,31,04,25,16.80
2017,07,31,04,26,16.70
2017,07,31,04,27,16.70
2017,07,31,04,28,16.70
2017,07,31,04,29,16.70
2017,07,31,04,30,16.60
2017,07,31,04,31,16.60
2017,07,31,04,32,16.60
2017,07,31,04,33,16.60
2017,07,31,04,34,16.60
2017,07,31,04,35,16.50
2017,07,31,04,36,16.50
2017,07,31,04,37,16.50
2017,07,31,04,38,16.40
2017,07,31,04,39,16.40
2017,07,31,04,40,16.40
2017,07,31,04,41,16.40
2017,07,31,04,42,16.40
2017,07,31,04,43,16.40
2017,07,31,04,44,16.40
2017,07,31,04,45,16.40
2017,07,31,04,46,16.40
2017,07,31,04,47,16.40
2017,07,31,04,48,16.30
2017,07,31,04,49,16.30
2017,07,31,04,50,16.30
2017,07,31,04,51,16.30
2017,07,31,04,52,16.30
2017,07,31,04,53,16.30
2017,07,31,04,54,16.40
2017,07,31,04,55,16.40
2017,07,31,04,56,16.40
2017,07,31,04,57,16.40
2017,07,31,04,58,16.40
2017,07,31,04,59,16.40
2017,07,31,05,00,16.50
2017,07,31,05,01,16.60
2017,07,31,05,02,16.60
2017,07,31,05,03,16.70
2017,07,31,05,04,16.70
2017,07,31,05,05,16.80
2017,07,31,05,06,16.80
2017,07,31,05,07,16.80
2017,07,31,05,08,16.80
2017,07,31,05,09,16.80
2017,07,31,05,10,16.90
2017,07,31,05,11,16.90
2017,07,31,05,12,17.00
2017,07,31,05,13,17.10
2017,07,31,05,14,17.10
2017,07,31,05,15,17.10
2017,07,31,05,16,17.10
2017,07,31,05,17,17.20
2017,07,31,05,18,17.20
2017,07,31,05,19,17.30
2017,07,31,05,20,17.30
2017,07,31,05,21,17.30
2017,07,31,05,22,17.30
2017,07,31,05,23,17.30
2017,07,31,05,24,17.30
2017,07,31,05,25,17.20
2017,07,31,05,26,17.20
2017,07,31,05,27,17.20
2017,07,31,05,28,17.20
2017,07,31,05,29,17.10
2017,07,31,05,30,17.10
2017,07,31,05,31,17.10
2017,07,31,05,32,17.10
2017,07,31,05,33,17.10
2017,07,31,05,34,17.10
2017,07,31,05,35,17.10
2017,07,31,05,36,17.10
2017,07,31,05,37,17.10
2017,07,31,05,38,17.10
2017,07,31,05,39,17.20
2017,07,31,05,40,17.20
2017,07,31,05,41,17.20
2017,07,31,05,42,17.20
2017,07,31,05,43,17.10
2017,07,31,05,44,17.10
2017,07,31,05,45,17.10
2017,07,31,05,46,17.10
2017,07,31,05,47,17.10
2017,07,31,05,48,17.10
2017,07,31,05,49,17.20
2017,07,31,05,50,17.20
2017,07,31,05,51,17.30
2017,07,31,05,52,17.30
2017,07,31,05,53,17.30
2017,07,31,05,54,17.30
2017,07,31,05,55,17.30
2017,07,31,05,56,17.30
2017,07,31,05,57,17.30
2017,07,31,05,58,17.30
2017,07,31,05,59,17.30
2017,07,31,06,00,17.30
2017,07,31,06,01,17.30
2017,07,31,06,02,17.30
2017,07,31,06,03,17.40
2017,07,31,06,04,17.40
2017,07,31,06,05,17.40
2017,07,31,06,06,17.40
2017,07,31,06,07,17.40
2017,07,31,06,08,17.40
2017,07,31,06,09,17.40
2017,07,31,06,10,17.30
2017,07,31,06,11,17.30
2017,07,31,06,12,17.30
2017,07,31,06,13,17.30
2017,07,31,06,14,17.30
2017,07,31,06,15,17.30
2017,07,31,06,16,17.30
2017,07,31,06,17,17.40
2017,07,31,06,18,17.40
2017,07,31,06,19,17.40
2017,07,31,06,20,17.50
2017,07,31,06,21,17.50
2017,07,31,06,22,17.50
2017,07,31,06,23,17.50
2017,07,31,06,24,17.50
2017,07,31,06,25,17.50
2017,07,31,06,26,17.50
2017,07,31,06,27,17.50
2017,07,31,06,28,17.50
2017,07,31,06,29,17.50
2017,07,31,06,30,17.60
2017,07,31,06,31,17.60
2017,07,31,06,32,17.60
2017,07,31,06,33,17.50
2017,07,31,06,34,17.50
2017,07,31,06,35,17.50
2017,07,31,06,36,17.50
2017,07,31,06,37,17.50
2017,07,31,06,38,17.60
2017,07,31,06,39,17.60
2017,07,31,06,40,17.60
2017,07,31,06,41,17.70
2017,07,31,06,42,17.70
2017,07,31,06,43,17.70
2017,07,31,06,44,17.70
2017,07,31,06,45,17.70
2017,07,31,06,46,17.80
2017,07,31,06,47,17.80
2017,07,31,06,48,17.80
2017,07,31,06,49,17.80
2017,07,31,06,50,17.80
2017,07,31,06,51,17.80
2017,07,31,06,52,17.80
2017,07,31,06,53,17.80
2017,07,31,06,54,17.80
2017,07,31,06,55,17.90
2017,07,31,06,56,17.90
2017,07,31,06,57,17.90
2017,07,31,06,58,17.90
2017,07,31,06,59,17.90
2017,07,31,07,00,17.90
2017,07,31,07,01,17.90
2017,07,31,07,02,17.90
2017,07,31,07,03,17.90
2017,07,31,07,04,17.90
2017,07,31,07,05,17.90
2017,07,31,07,06,17.90
2017,07,31,07,07,17.90
2017,07,31,07,08,17.90
2017,07,31,07,09,17.90
2017,07,31,07,10,17.90
2017,07,31,07,11,17.90
2017,07,31,07,12,17.90
2017,07,31,07,13,17.90
2017,07,31,07,14,17.90
2017,07,31,07,15,18.00
2017,07,31,07,16,18.00
2017,07,31,07,17,18.00
2017,07,31,07,18,18.10
2017,07,31,07,19,18.10
2017,07,31,07,20,18.10
2017,07,31,07,21,18.10
2017,07,31,07,22,18.10
2017,07,31,07,23,18.10
2017,07,31,07,24,18.10
2017,07,31,07,25,18.10
2017,07,31,07,26,18.10
2017,07,31,07,27,18.10
2017,07,31,07,28,18.20
2017,07,31,07,29,18.20
2017,07,31,07,30,18.20
2017,07,31,07,31,18.20
2017,07,31,07,32,18.30
2017,07,31,07,33,18.30
2017,07,31,07,34,18.30
2017,07,31,07,35,18.30
2017,07,31,07,36,18.40
2017,07,31,07,37,18.40
2017,07,31,07,38,18.50
2017,07,31,07,39,18.50
2017,07,31,07,40,18.50
2017,07,31,07,41,18.50
2017,07,31,07,42,18.60
2017,07,31,07,43,18.60
2017,07,31,07,44,18.60
2017,07,31,07,45,18.60
2017,07,31,07,46,18.70
2017,07,31,07,47,18.70
2017,07,31,07,48,18.70
2017,07,31,07,49,18.70
2017,07,31,07,50,18.80
2017,07,31,07,51,18.80
2017,07,31,07,52,18.80
2017,07,31,07,53,18.80
2017,07,31,07,54,18.80
2017,07,31,07,55,18.80
2017,07,31,07,56,18.90
2017,07,31,07,57,18.90
2017,07,31,07,58,18.90
2017,07,31,07,59,18.90
2017,07,31,08,00,18.90
2017,07,31,08,01,18.90
2017,07,31,08,02,18.90
2017,07,31,08,03,19.00
2017,07,31,08,04,19.00
2017,07,31,08,05,19.10
2017,07,31,08,06,19.10
2017,07,31,08,07,19.00
2017,07,31,08,08,19.00
2017,07,31,08,09,19.10
2017,07,31,08,10,19.10
2017,07,31,08,11,19.10
2017,07,31,08,12,19.10
2017,07,31,08,13,19.20
2017,07,31,08,14,19.20
2017,07,31,08,15,19.20
2017,07,31,08,16,19.20
2017,07,31,08,17,19.20
2017,07,31,08,18,19.20
2017,07,31,08,19,19.20
2017,07,31,08,20,19.20
2017,07,31,08,21,19.20
2017,07,31,08,22,19.30
2017,07,31,08,23,19.30
2017,07,31,08,24,19.30
2017,07,31,08,25,19.40
2017,07,31,08,26,19.40
2017,07,31,08,27,19.50
2017,07,31,08,28,19.50
2017,07,31,08,29,19.50
2017,07,31,08,30,19.60
2017,07,31,08,31,19.60
2017,07,31,08,32,19.70
2017,07,31,08,33,19.70
2017,07,31,08,34,19.60
2017,07,31,08,35,19.60
2017,07,31,08,36,19.60
2017,07,31,08,37,19.50
2017,07,31,08,38,19.50
2017,07,31,08,39,19.50
2017,07,31,08,40,19.60
2017,07,31,08,41,19.60
2017,07,31,08,42,19.60
2017,07,31,08,43,19.60
2017,07,31,08,44,19.70
2017,07,31,08,45,19.70
2017,07,31,08,46,19.70
2017,07,31,08,47,19.70
2017,07,31,08,48,19.70
2017,07,31,08,49,19.80
2017,07,31,08,50,19.80
2017,07,31,08,51,19.80
2017,07,31,08,52,19.80
2017,07,31,08,53,19.80
2017,07,31,08,54,19.80
2017,07,31,08,55,19.80
2017,07,31,08,56,19.80
2017,07,31,08,57,19.80
2017,07,31,08,58,19.80
2017,07,31,08,59,19.80
2017,07,31,09,00,19.70
2017,07,31,09,01,19.70
2017,07,31,09,02,19.60
2017,07,31,09,03,19.70
2017,07,31,09,04,19.70
2017,07,31,09,05,19.70
2017,07,31,09,06,19.70
2017,07,31,09,07,19.80
2017,07,31,09,08,19.80
2017,07,31,09,09,19.90
2017,07,31,09,10,19.90
2017,07,31,09,11,19.80
2017,07,31,09,12,19.90
2017,07,31,09,13,20.00
2017,07,31,09,14,20.10
2017,07,31,09,15,20.10
2017,07,31,09,16,20.20
2017,07,31,09,17,20.20
2017,07,31,09,18,20.20
2017,07,31,09,19,20.20
2017,07,31,09,20,20.30
2017,07,31,09,21,20.30
2017,07,31,09,22,20.40
2017,07,31,09,23,20.40
2017,07,31,09,24,20.30
2017,07,31,09,25,20.10
2017,07,31,09,26,20.10
2017,07,31,09,27,20.00
2017,07,31,09,28,20.00
2017,07,31,09,29,20.00
2017,07,31,09,30,20.00
2017,07,31,09,31,20.00
2017,07,31,09,32,20.10
2017,07,31,09,33,20.20
2017,07,31,09,34,20.20
2017,07,31,09,35,20.20
2017,07,31,09,36,20.10
2017,07,31,09,37,20.00
2017,07,31,09,38,20.00
2017,07,31,09,39,20.00
2017,07,31,09,40,20.10
2017,07,31,09,41,20.20
2017,07,31,09,42,20.20
2017,07,31,09,43,20.30
2017,07,31,09,44,20.30
2017,07,31,09,45,20.40
2017,07,31,09,46,20.50
2017,07,31,09,47,20.50
2017,07,31,09,48,20.40
2017,07,31,09,49,20.40
2017,07,31,09,50,20.50
2017,07,31,09,51,20.50
2017,07,31,09,52,20.60
2017,07,31,09,53,20.60
2017,07,31,09,54,20.60
2017,07,31,09,55,20.60
2017,07,31,09,56,20.70
2017,07,31,09,57,20.70
2017,07,31,09,58,20.80
2017,07,31,09,59,20.80
2017,07,31,10,00,20.90
2017,07,31,10,01,20.90
2017,07,31,10,02,20.80
2017,07,31,10,03,20.70
2017,07,31,10,04,20.70
2017,07,31,10,05,20.70
2017,07,31,10,06,20.70
2017,07,31,10,07,20.80
2017,07,31,10,08,20.80
2017,07,31,10,09,20.80
2017,07,31,10,10,20.70
2017,07,31,10,11,20.70
2017,07,31,10,12,20.70
2017,07,31,10,13,20.70
2017,07,31,10,14,20.60
2017,07,31,10,15,20.60
2017,07,31,10,16,20.50
2017,07,31,10,17,20.40
2017,07,31,10,18,20.30
2017,07,31,10,19,20.30
2017,07,31,10,20,20.30
2017,07,31,10,21,20.40
2017,07,31,10,22,20.50
2017,07,31,10,23,20.60
2017,07,31,10,24,20.70
2017,07,31,10,25,20.70
2017,07,31,10,26,20.80
2017,07,31,10,27,20.90
2017,07,31,10,28,21.00
2017,07,31,10,29,21.00
2017,07,31,10,30,21.10
2017,07,31,10,31,21.10
2017,07,31,10,32,21.10
2017,07,31,10,33,21.00
2017,07,31,10,34,21.00
2017,07,31,10,35,21.00
2017,07,31,10,36,21.00
2017,07,31,10,37,21.10
2017,07,31,10,38,21.10
2017,07,31,10,39,21.10
2017,07,31,10,40,21.20
2017,07,31,10,41,21.20
2017,07,31,10,42,21.30
2017,07,31,10,43,21.30
2017,07,31,10,44,21.40
2017,07,31,10,45,21.40
2017,07,31,10,46,21.50
2017,07,31,10,47,21.50
2017,07,31,10,48,21.50
2017,07,31,10,49,21.50
2017,07,31,10,50,21.40
2017,07,31,10,51,21.40
2017,07,31,10,52,21.40
2017,07,31,10,53,21.30
2017,07,31,10,54,21.20
2017,07,31,10,55,21.10
2017,07,31,10,56,21.10
2017,07,31,10,57,21.10
2017,07,31,10,58,21.10
2017,07,31,10,59,21.00
2017,07,31,11,00,21.00
2017,07,31,11,01,21.00
2017,07,31,11,02,21.00
2017,07,31,11,03,21.00
2017,07,31,11,04,21.10
2017,07,31,11,05,21.20
2017,07,31,11,06,21.10
2017,07,31,11,07,20.90
2017,07,31,11,08,20.90
2017,07,31,11,09,21.00
2017,07,31,11,10,21.00
2017,07,31,11,11,21.00
2017,07,31,11,12,21.20
2017,07,31,11,13,21.30
2017,07,31,11,14,21.40
2017,07,31,11,15,21.50
2017,07,31,11,16,21.70
2017,07,31,11,17,21.90
2017,07,31,11,18,21.80
2017,07,31,11,19,21.80
2017,07,31,11,20,21.90
2017,07,31,11,21,21.80
2017,07,31,11,22,21.70
2017,07,31,11,23,21.80
2017,07,31,11,24,21.80
2017,07,31,11,25,21.70
2017,07,31,11,26,21.60
2017,07,31,11,27,21.50
2017,07,31,11,28,21.50
2017,07,31,11,29,21.40
2017,07,31,11,30,21.50
2017,07,31,11,31,21.60
2017,07,31,11,32,21.60
2017,07,31,11,33,21.60
2017,07,31,11,34,21.70
2017,07,31,11,35,21.70
2017,07,31,11,36,21.80
2017,07,31,11,37,21.90
2017,07,31,11,38,21.90
2017,07,31,11,39,21.90
2017,07,31,11,40,21.80
2017,07,31,11,41,21.70
2017,07,31,11,42,21.80
2017,07,31,11,43,21.80
2017,07,31,11,44,21.80
2017,07,31,11,45,21.80
2017,07,31,11,46,21.80
2017,07,31,11,47,21.90
2017,07,31,11,48,22.00
2017,07,31,11,49,22.20
2017,07,31,11,50,22.30
2017,07,31,11,51,22.30
2017,07,31,11,52,22.30
2017,07,31,11,53,22.30
2017,07,31,11,54,22.30
2017,07,31,11,55,22.40
2017,07,31,11,56,22.20
2017,07,31,11,57,22.10
2017,07,31,11,58,22.00
2017,07,31,11,59,22.00
2017,07,31,12,00,22.10
2017,07,31,12,01,22.20
2017,07,31,12,02,22.20
2017,07,31,12,03,22.10
2017,07,31,12,04,22.10
2017,07,31,12,05,22.00
2017,07,31,12,06,22.10
2017,07,31,12,07,22.10
2017,07,31,12,08,22.10
2017,07,31,12,09,22.20
2017,07,31,12,10,22.20
2017,07,31,12,11,22.20
2017,07,31,12,12,22.20
2017,07,31,12,13,22.20
2017,07,31,12,14,22.30
2017,07,31,12,15,22.30
2017,07,31,12,16,22.30
2017,07,31,12,17,22.20
2017,07,31,12,18,22.20
2017,07,31,12,19,22.10
2017,07,31,12,20,22.10
2017,07,31,12,21,22.10
2017,07,31,12,22,22.20
2017,07,31,12,23,22.30
2017,07,31,12,24,22.40
2017,07,31,12,25,22.60
2017,07,31,12,26,22.70
2017,07,31,12,27,22.70
2017,07,31,12,28,22.70
2017,07,31,12,29,22.50
2017,07,31,12,30,22.50
2017,07,31,12,31,22.60
2017,07,31,12,32,22.60
2017,07,31,12,33,22.60
2017,07,31,12,34,22.50
2017,07,31,12,35,22.50
2017,07,31,12,36,22.40
2017,07,31,12,37,22.40
2017,07,31,12,38,22.20
2017,07,31,12,39,22.10
2017,07,31,12,40,22.10
2017,07,31,12,41,22.10
2017,07,31,12,42,22.00
2017,07,31,12,43,22.10
2017,07,31,12,44,22.10
2017,07,31,12,45,22.20
2017,07,31,12,46,22.20
2017,07,31,12,47,22.30
2017,07,31,12,48,22.30
2017,07,31,12,49,22.40
2017,07,31,12,50,22.40
2017,07,31,12,51,22.60
2017,07,31,12,52,22.70
2017,07,31,12,53,22.60
2017,07,31,12,54,22.60
2017,07,31,12,55,22.60
2017,07,31,12,56,22.60
2017,07,31,12,57,22.60
2017,07,31,12,58,22.60
2017,07,31,12,59,22.60
2017,07,31,13,00,22.60
2017,07,31,13,01,22.60
2017,07,31,13,02,22.60
2017,07,31,13,03,22.70
2017,07,31,13,04,22.80
2017,07,31,13,05,22.90
2017,07,31,13,06,22.90
2017,07,31,13,07,22.90
2017,07,31,13,08,22.90
2017,07,31,13,09,22.90
2017,07,31,13,10,23.10
2017,07,31,13,11,23.20
2017,07,31,13,12,23.30
2017,07,31,13,13,23.30
2017,07,31,13,14,23.20
2017,07,31,13,15,23.20
2017,07,31,13,16,23.20
2017,07,31,13,17,23.30
2017,07,31,13,18,23.30
2017,07,31,13,19,23.30
2017,07,31,13,20,23.20
2017,07,31,13,21,23.10
2017,07,31,13,22,23.10
2017,07,31,13,23,23.00
2017,07,31,13,24,23.10
2017,07,31,13,25,23.10
2017,07,31,13,26,23.00
2017,07,31,13,27,22.80
2017,07,31,13,28,22.70
2017,07,31,13,29,22.80
2017,07,31,13,30,22.80
2017,07,31,13,31,23.00
2017,07,31,13,32,23.10
2017,07,31,13,33,23.30
2017,07,31,13,34,23.40
2017,07,31,13,35,23.50
2017,07,31,13,36,23.50
2017,07,31,13,37,23.50
2017,07,31,13,38,23.50
2017,07,31,13,39,23.50
2017,07,31,13,40,23.50
2017,07,31,13,41,23.60
2017,07,31,13,42,23.70
2017,07,31,13,43,23.70
2017,07,31,13,44,23.60
2017,07,31,13,45,23.60
2017,07,31,13,46,23.60
2017,07,31,13,47,23.60
2017,07,31,13,48,23.80
2017,07,31,13,49,23.80
2017,07,31,13,50,23.90
2017,07,31,13,51,24.00
2017,07,31,13,52,24.00
2017,07,31,13,53,24.00
2017,07,31,13,54,24.10
2017,07,31,13,55,24.20
2017,07,31,13,56,24.20
2017,07,31,13,57,23.90
2017,07,31,13,58,23.70
2017,07,31,13,59,23.60
2017,07,31,14,00,23.60
2017,07,31,14,01,23.70
2017,07,31,14,02,23.60
2017,07,31,14,03,23.60
2017,07,31,14,04,23.60
2017,07,31,14,05,23.70
2017,07,31,14,06,23.80
2017,07,31,14,07,24.00
2017,07,31,14,08,24.20
2017,07,31,14,09,24.40
2017,07,31,14,10,24.30
2017,07,31,14,11,24.10
2017,07,31,14,12,23.90
2017,07,31,14,13,23.80
2017,07,31,14,14,23.80
2017,07,31,14,15,23.80
2017,07,31,14,16,23.90
2017,07,31,14,17,24.00
2017,07,31,14,18,24.00
2017,07,31,14,19,24.10
2017,07,31,14,20,24.00
2017,07,31,14,21,24.00
2017,07,31,14,22,24.00
2017,07,31,14,23,24.00
2017,07,31,14,24,24.00
2017,07,31,14,25,23.90
2017,07,31,14,26,23.90
2017,07,31,14,27,23.90
2017,07,31,14,28,23.90
2017,07,31,14,29,24.00
2017,07,31,14,30,24.10
2017,07,31,14,31,24.20
2017,07,31,14,32,24.30
2017,07,31,14,33,24.30
2017,07,31,14,34,24.30
2017,07,31,14,35,24.10
2017,07,31,14,36,24.10
2017,07,31,14,37,24.10
2017,07,31,14,38,24.10
2017,07,31,14,39,24.10
2017,07,31,14,40,24.20
2017,07,31,14,41,24.20
2017,07,31,14,42,24.20
2017,07,31,14,43,24.30
2017,07,31,14,44,24.30
2017,07,31,14,45,24.40
2017,07,31,14,46,24.50
2017,07,31,14,47,24.60
2017,07,31,14,48,24.60
2017,07,31,14,49,24.50
2017,07,31,14,50,24.60
2017,07,31,14,51,24.70
2017,07,31,14,52,24.90
2017,07,31,14,53,24.90
2017,07,31,14,54,24.80
2017,07,31,14,55,24.80
2017,07,31,14,56,24.90
2017,07,31,14,57,24.90
2017,07,31,14,58,24.90
2017,07,31,14,59,25.00
2017,07,31,15,00,25.10
2017,07,31,15,01,25.10
2017,07,31,15,02,25.20
2017,07,31,15,03,25.20
2017,07,31,15,04,25.00
2017,07,31,15,05,24.80
2017,07,31,15,06,24.70
2017,07,31,15,07,24.60
2017,07,31,15,08,24.60
2017,07,31,15,09,24.70
2017,07,31,15,10,24.70
2017,07,31,15,11,24.80
2017,07,31,15,12,24.70
2017,07,31,15,13,24.70
2017,07,31,15,14,24.70
2017,07,31,15,15,24.60
2017,07,31,15,16,24.60
2017,07,31,15,17,24.50
2017,07,31,15,18,24.50
2017,07,31,15,19,24.60
2017,07,31,15,20,24.70
2017,07,31,15,21,24.80
2017,07,31,15,22,24.80
2017,07,31,15,23,24.80
2017,07,31,15,24,24.80
2017,07,31,15,25,24.90
2017,07,31,15,26,25.00
2017,07,31,15,27,25.10
2017,07,31,15,28,25.00
2017,07,31,15,29,25.00
2017,07,31,15,30,24.80
2017,07,31,15,31,24.70
2017,07,31,15,32,24.60
2017,07,31,15,33,24.70
2017,07,31,15,34,24.70
2017,07,31,15,35,24.70
2017,07,31,15,36,24.60
2017,07,31,15,37,24.60
2017,07,31,15,38,24.70
2017,07,31,15,39,24.80
2017,07,31,15,40,24.90
2017,07,31,15,41,25.10
2017,07,31,15,42,25.20
2017,07,31,15,43,25.30
2017,07,31,15,44,25.40
2017,07,31,15,45,25.50
2017,07,31,15,46,25.60
2017,07,31,15,47,25.80
2017,07,31,15,48,25.90
2017,07,31,15,49,25.90
2017,07,31,15,50,25.90
2017,07,31,15,51,26.00
2017,07,31,15,52,26.00
2017,07,31,15,53,25.80
2017,07,31,15,54,25.80
2017,07,31,15,55,25.80
2017,07,31,15,56,25.80
2017,07,31,15,57,26.00
2017,07,31,15,58,26.10
2017,07,31,15,59,26.20
2017,07,31,16,00,26.10
2017,07,31,16,01,26.10
2017,07,31,16,02,26.20
2017,07,31,16,03,26.10
2017,07,31,16,04,26.10
2017,07,31,16,05,26.00
2017,07,31,16,06,26.00
2017,07,31,16,07,26.00
2017,07,31,16,08,26.10
2017,07,31,16,09,26.10
2017,07,31,16,10,26.10
2017,07,31,16,11,26.20
2017,07,31,16,12,26.10
2017,07,31,16,13,26.10
2017,07,31,16,14,26.10
2017,07,31,16,15,26.20
2017,07,31,16,16,26.20
2017,07,31,16,17,26.20
2017,07,31,16,18,26.20
2017,07,31,16,19,26.20
2017,07,31,16,20,26.20
2017,07,31,16,21,26.10
2017,07,31,16,22,26.10
2017,07,31,16,23,26.10
2017,07,31,16,24,26.00
2017,07,31,16,25,25.90
2017,07,31,16,26,25.70
2017,07,31,16,27,25.70
2017,07,31,16,28,25.70
2017,07,31,16,29,25.70
2017,07,31,16,30,25.80
2017,07,31,16,31,26.00
2017,07,31,16,32,26.10
2017,07,31,16,33,26.30
2017,07,31,16,34,26.30
2017,07,31,16,35,26.40
2017,07,31,16,36,26.40
2017,07,31,16,37,26.30
2017,07,31,16,38,26.30
2017,07,31,16,39,26.40
2017,07,31,16,40,26.50
2017,07,31,16,41,26.60
2017,07,31,16,42,26.40
2017,07,31,16,43,26.30
2017,07,31,16,44,26.20
2017,07,31,16,45,26.10
2017,07,31,16,46,26.00
2017,07,31,16,47,25.90
2017,07,31,16,48,25.80
2017,07,31,16,49,25.80
2017,07,31,16,50,25.80
2017,07,31,16,51,25.80
2017,07,31,16,52,25.80
2017,07,31,16,53,25.80
2017,07,31,16,54,25.90
2017,07,31,16,55,25.90
2017,07,31,16,56,25.90
2017,07,31,16,57,26.00
2017,07,31,16,58,26.00
2017,07,31,16,59,26.10
2017,07,31,17,00,26.10
2017,07,31,17,01,26.10
2017,07,31,17,02,26.10
2017,07,31,17,03,26.20
2017,07,31,17,04,26.20
2017,07,31,17,05,26.20
2017,07,31,17,06,26.20
2017,07,31,17,07,26.20
2017,07,31,17,08,26.20
2017,07,31,17,09,26.20
2017,07,31,17,10,26.20
2017,07,31,17,11,26.20
2017,07,31,17,12,26.20
2017,07,31,17,13,26.20
2017,07,31,17,14,26.20
2017,07,31,17,15,26.20
2017,07,31,17,16,26.20
2017,07,31,17,17,26.30
2017,07,31,17,18,26.40
2017,07,31,17,19,26.50